Vorticity
6 5 5 5 5 7 10 7 7 7 10 11 9 8 4 10 8 11 9 7 15 12 14 15 13 13 14 17 9 -1 25 11 27 14 17 0 15 13 4 4 15 -3 27 6 -3 10 1
6 5 6 6 4 7 8 7 8 7 4 8 14 9 5 9 9 11 9 7 15 11 12 10 10 12 14 13 16 12 12 13 12 14 13 -6 16 5 10 13 0 44 -21 14 5 44 15
6 6 6 6 4 6 6 7 10 13 8 5 11 12 7 6 9 13 9 9 15 9 7 7 5 4 9 12 13 18 1 19 38 17 10 -9 20 22 19 9 12 1 42 1 12 -3 14
6 6 7 6 4 5 6 7 8 11 10 7 9 18 8 3 9 13 12 10 8 10 8 1 -1 -2 5 12 9 15 15 6 4 3 25 1 7 24 12 -5 10 20 18 14 14 35 1
5 6 6 7 5 5 5 6 7 8 10 11 9 21 8 3 8 12 15 11 6 19 9 3 1 1 16 13 13 15 15 8 25 37 14 -2 -1 5 11 -2 7 2 28 3 21 12 8
5 6 6 8 5 5 5 5 5 6 10 13 10 21 9 5 5 10 15 14 9 14 18 15 13 21 10 7 8 17 17 13 7 32 16 6 -12 12 3 5 7 4 20 4 -3 9 13
7 6 6 8 6 5 5 5 5 5 8 12 11 22 10 8 4 11 16 16 13 6 11 20 2 -3 -3 -4 -0 11 22 31 17 7 29 -12 1 18 8 2 12 3 11 -1 12 13 3
5 7 6 8 6 5 5 5 5 7 6 12 12 22 10 9 6 12 13 17 11 3 5 15 17 23 14 11 9 15 12 21 27 15 35 -17 14 27 13 8 4 32 -4 19 -11 -2 25
8 7 6 8 7 6 5 5 4 7 8 11 12 20 10 9 7 12 15 16 17 7 2 10 9 21 13 12 10 7 9 31 14 10 34 -9 14 23 10 3 -20 23 12 -17 -15 14 -2
14 5 5 7 8 6 6 5 4 6 9 10 13 17 10 9 11 10 14 17 14 10 7 -6 10 12 15 11 12 10 20 20 8 38 20 11 -34 38 12 -4 15 -2 17 22 13 19 -7
9 5 5 7 9 6 5 6 6 6 10 12 15 14 12 10 8 14 12 15 10 15 3 11 9 14 -1 21 7 11 13 17 18 12 -20 17 11 35 21 -7 11 23 9 12 11 14 4
6 5 5 6 9 7 7 6 7 7 11 12 16 13 14 10 8 12 12 18 12 12 2 16 12 18 17 5 14 12 9 24 5 -7 13 3 -12 9 11 -3 2 19 13 11 13 11 14
7 6 5 6 7 7 6 6 8 8 11 15 15 13 15 8 8 11 14 20 7 14 6 1 15 18 14 20 14 12 22 11 -7 1 3 7 11 22 24 -4 14 18 1 3 3 7 7
11 6 5 6 6 6 6 6 11 9 11 15 13 14 12 8 7 11 14 19 12 3 12 15 6 21 -1 2 19 17 12 5 -10 11 -1 -1 21 4 35 -10 13 17 -28 9 10 8 7
14 7 5 6 5 5 6 7 12 9 11 15 12 14 12 10 7 13 16 12 13 3 8 7 -2 6 6 20 20 3 -4 2 -7 32 -7 4 20 6 14 -7 2 11 -8 -10 5 9 7
13 8 6 7 5 5 5 8 13 10 12 12 10 17 17 9 9 13 12 14 14 10 11 10 11 15 21 1 2 7 4 25 18 11 18 35 12 12 15 13 -0 18 -2 2 6 6 6
11 8 6 7 5 5 5 10 12 13 13 9 10 16 9 12 11 16 9 18 7 5 4 12 14 6 14 5 13 3 15 18 12 -13 19 -1 3 32 17 9 1 -4 18 -17 3 -4 8
8 9 6 8 5 5 6 8 16 14 12 10 13 14 5 13 7 8 6 7 10 9 16 4 1 6 12 12 11 7 11 22 15 1 21 6 23 6 2 -5 -0 19 -1 15 -23 15 11
5 9 6 8 7 5 6 9 13 13 12 11 11 16 17 15 8 14 10 8 10 8 8 3 9 12 5 7 13 14 6 13 22 1 8 2 26 3 29 14 12 9 5 3 1 3 8
4 10 6 7 7 4 7 13 12 11 11 15 17 14 12 14 11 10 9 7 7 10 10 4 7 6 3 5 13 9 8 16 10 4 4 12 13 3 2 13 35 28 7 5 -1 -4 -2
4 9 6 6 6 5 8 12 13 12 11 16 15 5 13 5 11 9 10 11 7 5 13 10 9 3 4 6 10 17 14 15 15 7 5 0 10 10 8 11 7 4 13 38 16 -1 -27
3 8 6 7 4 6 10 12 10 11 9 14 14 19 13 15 15 14 11 8 5 5 8 8 12 9 10 7 8 10 14 17 -6 5 5 5 4 10 17 18 -3 -0 8 12 14 23 18
7 8 8 8 3 10 9 12 10 8 8 11 10 17 21 13 20 16 10 11 10 6 5 9 6 9 6 10 12 10 8 8 7 5 4 9 3 11 15 12 16 31 29 25 7 6 20
2 9 8 6 4 11 13 11 9 9 7 7 8 11 13 14 23 22 12 15 10 4 10 8 5 8 9 6 5 6 5 6 12 8 10 5 13 11 10 5 15 14 12 11 9 16 36
14 4 7 3 8 13 14 8 8 10 10 6 7 10 13 9 19 24 19 10 10 4 6 9 11 8 4 10 6 12 15 14 11 6 6 8 12 2 1 19 -13 13 23 25 11 3 12
-2 12 9 3 12 15 8 7 7 10 12 8 8 8 17 14 7 22 27 20 18 9 3 7 1 12 12 9 4 8 8 8 14 13 28 7 7 -2 20 7 3 4 10 6 7 25 12
22 3 10 7 17 9 8 7 7 9 9 10 10 7 16 5 6 8 15 25 25 19 14 13 8 7 2 7 9 5 1 -3 10 8 15 12 18 3 3 -5 12 13 13 15 21 2 1
18 9 -0 11 16 10 10 8 9 11 10 11 10 8 18 6 10 8 8 12 16 26 16 16 20 16 12 13 3 11 13 8 14 1 1 7 12 14 34 13 21 32 17 13 9 7 14
26 3 5 20 12 6 4 6 8 11 13 10 12 9 18 7 6 6 8 8 14 23 27 15 5 22 13 10 9 22 7 4 11 3 23 13 -1 -1 -9 1 -2 -0 -1 1 -1 2 5
Height
3132 3127 3123 3119 3113 3108 3103 3098 3094 3088 3084 3080 3076 3072 3069 3063 3059 3055 3050 3045 3041 3038 3035 3033 3032 3031 3031 3033 3034 3034 3035 3039 3043 3048 3056 3063 3069 3073 3079 3086 3093 3097 3102 3110 3115 3118 3125
3132 3127 3121 3117 3112 3107 3101 3096 3092 3086 3081 3077 3073 3069 3065 3060 3056 3052 3048 3044 3041 3038 3035 3034 3033 3032 3032 3033 3032 3033 3034 3037 3040 3045 3053 3061 3066 3072 3080 3085 3091 3094 3100 3107 3112 3115 3121
3131 3127 3120 3114 3109 3105 3099 3094 3090 3084 3078 3074 3069 3066 3062 3057 3054 3049 3045 3042 3039 3036 3036 3035 3034 3033 3032 3033 3032 3033 3034 3034 3037 3043 3051 3059 3065 3071 3077 3084 3089 3092 3100 3106 3108 3114 3117
3129 3125 3119 3113 3107 3103 3098 3093 3088 3082 3076 3071 3066 3063 3059 3055 3051 3046 3043 3040 3039 3037 3035 3034 3034 3033 3032 3032 3031 3032 3033 3033 3037 3041 3050 3059 3064 3070 3077 3082 3088 3092 3098 3101 3104 3109 3114
3126 3123 3117 3112 3107 3101 3096 3091 3086 3080 3074 3068 3063 3059 3056 3053 3049 3044 3041 3039 3037 3035 3034 3033 3033 3032 3032 3031 3032 3032 3032 3033 3034 3041 3050 3055 3062 3068 3076 3080 3085 3088 3091 3096 3101 3106 3110
3123 3120 3115 3110 3106 3100 3094 3089 3083 3079 3073 3066 3060 3056 3053 3050 3047 3042 3039 3037 3036 3034 3033 3032 3031 3033 3031 3031 3030 3032 3032 3032 3034 3040 3047 3054 3058 3065 3071 3076 3074 3079 3088 3095 3098 3104 3106
3120 3117 3113 3108 3104 3098 3093 3087 3081 3076 3071 3064 3059 3054 3051 3048 3045 3041 3037 3035 3038 3036 3031 3031 3030 3030 3030 3030 3029 3030 3030 3031 3035 3039 3043 3051 3058 3061 3067 3075 3079 3084 3089 3095 3100 3104 3108
3117 3114 3110 3105 3101 3096 3091 3085 3079 3074 3069 3063 3057 3052 3049 3046 3043 3040 3036 3035 3034 3035 3032 3030 3028 3028 3028 3028 3028 3027 3029 3032 3034 3038 3044 3053 3054 3062 3070 3077 3081 3084 3090 3095 3100 3104 3107
3115 3111 3107 3103 3099 3094 3089 3083 3077 3072 3067 3061 3056 3050 3046 3044 3042 3039 3036 3034 3032 3032 3032 3031 3029 3028 3027 3028 3028 3026 3029 3030 3035 3039 3044 3053 3055 3061 3069 3075 3080 3085 3089 3093 3099 3103 3107
3112 3107 3103 3100 3096 3092 3087 3081 3075 3070 3065 3059 3054 3049 3045 3043 3043 3038 3035 3032 3030 3030 3031 3033 3030 3029 3029 3028 3029 3028 3028 3033 3036 3041 3048 3055 3056 3059 3067 3075 3081 3085 3089 3094 3098 3100 3103
3107 3103 3100 3096 3093 3090 3085 3080 3073 3067 3063 3057 3052 3048 3044 3042 3040 3038 3036 3031 3031 3032 3034 3034 3031 3030 3028 3030 3031 3031 3032 3035 3037 3042 3050 3055 3059 3060 3068 3076 3082 3085 3089 3093 3097 3100 3102
3102 3099 3096 3093 3090 3087 3083 3078 3071 3065 3060 3055 3051 3047 3043 3042 3039 3038 3033 3032 3032 3034 3034 3034 3034 3031 3030 3030 3031 3033 3035 3039 3043 3046 3051 3054 3059 3063 3070 3077 3081 3085 3089 3094 3097 3099 3098
3098 3095 3093 3090 3087 3083 3080 3075 3069 3062 3058 3053 3049 3045 3042 3041 3040 3036 3034 3032 3033 3032 3039 3037 3035 3033 3032 3033 3034 3035 3037 3042 3047 3051 3053 3057 3062 3064 3069 3076 3080 3083 3087 3094 3099 3099 3096
3095 3092 3089 3086 3084 3080 3076 3072 3067 3060 3056 3051 3047 3045 3042 3040 3039 3037 3036 3035 3035 3039 3039 3039 3038 3035 3036 3036 3039 3039 3041 3044 3048 3050 3053 3057 3066 3065 3069 3073 3077 3082 3085 3085 3090 3093 3092
3092 3090 3087 3083 3080 3077 3074 3070 3064 3058 3054 3050 3046 3044 3041 3040 3039 3037 3037 3036 3038 3039 3040 3040 3040 3039 3039 3040 3040 3041 3043 3046 3048 3051 3054 3057 3061 3064 3070 3074 3079 3081 3083 3086 3086 3090 3091
3087 3086 3083 3079 3076 3073 3071 3067 3061 3056 3052 3048 3045 3043 3041 3039 3038 3037 3038 3038 3039 3039 3040 3040 3041 3041 3041 3042 3044 3044 3046 3047 3049 3049 3050 3055 3061 3065 3069 3074 3078 3079 3084 3086 3086 3091 3092
3082 3081 3080 3077 3073 3069 3068 3065 3059 3054 3051 3047 3043 3041 3040 3038 3038 3038 3037 3038 3039 3040 3041 3041 3040 3041 3043 3044 3044 3046 3048 3048 3048 3050 3054 3056 3060 3067 3071 3073 3075 3079 3080 3083 3085 3086 3085
3077 3077 3076 3073 3070 3066 3065 3062 3057 3052 3050 3046 3043 3040 3039 3038 3039 3037 3038 3038 3039 3040 3041 3041 3042 3043 3043 3044 3045 3045 3046 3047 3049 3053 3056 3057 3060 3066 3069 3071 3073 3075 3077 3080 3081 3083 3083
3071 3072 3071 3070 3067 3064 3062 3059 3055 3051 3049 3046 3042 3039 3038 3037 3037 3037 3038 3038 3039 3040 3042 3043 3044 3045 3045 3045 3046 3046 3046 3047 3049 3053 3057 3059 3062 3066 3070 3073 3070 3071 3073 3076 3079 3079 3076
3067 3067 3066 3066 3064 3061 3059 3056 3053 3050 3048 3045 3041 3038 3037 3035 3035 3037 3038 3038 3038 3039 3042 3045 3045 3045 3046 3046 3045 3045 3046 3048 3051 3054 3056 3058 3059 3060 3062 3061 3063 3065 3067 3071 3074 3073 3072
3061 3061 3061 3061 3060 3059 3056 3053 3051 3048 3046 3044 3040 3038 3036 3034 3034 3036 3037 3038 3039 3040 3041 3040 3041 3044 3044 3047 3048 3046 3047 3048 3050 3053 3055 3057 3056 3058 3059 3060 3060 3062 3063 3064 3063 3066 3065
3056 3056 3056 3057 3057 3055 3053 3050 3048 3046 3044 3042 3038 3036 3033 3033 3033 3035 3035 3037 3039 3040 3040 3040 3041 3042 3045 3045 3048 3048 3048 3049 3050 3051 3053 3055 3057 3056 3056 3056 3057 3057 3058 3058 3058 3060 3056
3050 3051 3051 3052 3052 3051 3049 3047 3045 3044 3043 3040 3037 3034 3031 3030 3031 3033 3034 3035 3037 3038 3039 3040 3042 3043 3044 3045 3045 3047 3048 3049 3049 3050 3051 3053 3054 3055 3054 3053 3053 3053 3050 3051 3051 3050 3051
3044 3046 3047 3047 3047 3047 3046 3045 3043 3042 3041 3039 3036 3034 3031 3029 3028 3029 3031 3033 3034 3036 3038 3039 3040 3042 3044 3045 3047 3047 3047 3049 3049 3048 3049 3050 3052 3054 3053 3052 3053 3046 3045 3046 3045 3045 3045
3037 3041 3042 3043 3044 3044 3044 3043 3041 3040 3039 3037 3035 3033 3031 3029 3027 3027 3028 3030 3031 3033 3035 3036 3038 3040 3042 3043 3045 3045 3045 3047 3048 3048 3047 3048 3049 3051 3052 3051 3046 3043 3042 3042 3042 3041 3040
3031 3035 3037 3039 3040 3041 3041 3040 3039 3038 3036 3035 3034 3032 3031 3030 3029 3027 3026 3027 3028 3029 3032 3033 3035 3036 3038 3041 3042 3045 3044 3043 3044 3045 3045 3046 3047 3050 3050 3050 3046 3040 3039 3039 3039 3038 3037
3024 3031 3033 3035 3036 3037 3038 3037 3036 3035 3034 3033 3032 3031 3030 3029 3028 3028 3026 3026 3025 3025 3026 3028 3031 3032 3034 3036 3037 3038 3042 3043 3043 3042 3042 3044 3045 3045 3047 3047 3041 3038 3038 3037 3039 3041 3035
3017 3025 3028 3031 3033 3034 3035 3035 3034 3033 3031 3031 3031 3030 3030 3028 3028 3027 3026 3024 3023 3021 3022 3023 3027 3028 3030 3033 3034 3035 3036 3038 3038 3038 3039 3040 3041 3041 3043 3044 3040 3035 3036 3037 3035 3033 3032
3013 3019 3024 3026 3030 3032 3033 3032 3031 3030 3029 3030 3029 3029 3028 3029 3028 3028 3026 3024 3021 3018 3017 3019 3022 3023 3026 3030 3032 3034 3034 3034 3035 3035 3034 3037 3036 3037 3038 3035 3034 3034 3034 3034 3032 3031 3029